Terminal Aerodrome Forecast
Issued by NWS Jackson, MS

Home | Current Version | Previous Version | Text Only | Print | Product List | Glossary On
Versions: 1 2 3 4 5 6 7 8 9 10 11 12 13 14 15 16 17
886
FTUS44 KJAN 281739
TAFJAN
TAF
KJAN 281739Z 2818/2918 18026G34KT P6SM BKN035
     FM282000 17018G28KT P6SM SCT035
     FM290900 15014G20KT P6SM OVC015=

USA.gov is the U.S. government's official web portal to all federal, state and local government web resources and services.